Flag for Israel Weather past 2 weeks in Eilat, Israel

Now
88 °F

Sunny.


Feels Like: 86 °F
Forecast: 73 / 102 °F
Wind: 13 mph from Northeast

Location: Eilat

Current Time: Jul 24, 2014 at 8:21:50 AM

Latest Report: Jul 24, 2014 at 7:50 AM


Visibility: 10 mi

Pressure: 29.77 "Hg

Humidity: 33%

Dew point: 55 °F

Location of EilatLocation

Historic Weather in Eilat — Graph

°F

Eilat temperature yesterday

Maximum temperature yesterday: 106 °F (at 3:50 PM)
Minimum temperature yesterday: 82 °F (at 5:50 AM)
Average temperature yesterday: 97 °F

Past Weeks' High & Low Weather Summary

 TemperatureHumidityPressure
High111 °F (Jul 12, 2:50 PM)58% (Jul 19, 6:50 AM)29.89 "Hg (Jul 19, 6:50 AM)
Low77 °F (Jul 20, 5:50 AM)7% (Jul 10, 3:50 PM)29.65 "Hg (Jul 9, 3:50 PM)
Average94 °F28%29.76 "Hg
* Reported Jul 9 7:50 AM — Jul 24 6:50 AM, Eilat, Weather by CustomWeather, © 2014

Note: Actual official high and low records may vary slightly from our data, if they occured in-between our weather recording intervals... More about our weather records

Advertising

Eilat weather history for previous 24 hours

 ConditionsComfort  
Time TempWeatherWind HumidityBarometerVisibility
6:50 AM
Jul 24
84 °FClear.7 mph40%29.77 "Hg10 mi
5:50 AM102 °FClear.9 mph23%29.77 "Hg10 mi
10:50 PM
Jul 23
95 °FClear.17 mph30%29.77 "Hg10 mi
9:50 PM97 °FClear.14 mph28%29.74 "Hg10 mi
8:50 PM99 °FClear.9 mph25%29.71 "Hg10 mi
7:50 PM100 °FSunny.12 mph20%29.68 "Hg10 mi
6:50 PM104 °FSunny.13 mph16%29.68 "Hg10 mi
5:50 PM106 °FPassing clouds.12 mph15%29.68 "HgN/A
4:50 PM106 °FSunny.9 mph15%29.68 "Hg10 mi
3:50 PM106 °FPassing clouds.10 mph15%29.68 "HgN/A
2:50 PM104 °FPassing clouds.10 mph17%29.71 "HgN/A
1:50 PM102 °FPassing clouds.12 mph21%29.71 "HgN/A
12:50 PM100 °FPassing clouds.13 mph25%29.74 "HgN/A
11:50 AM97 °FPassing clouds.12 mph27%29.77 "HgN/A
10:50 AM93 °FPassing clouds.12 mph34%29.77 "HgN/A
8:50 AM88 °FSunny.9 mph35%29.80 "Hg10 mi
Weather by CustomWeather, © 2014

See weather overviewHow to use our weather pages